Flag for U.S.A. Weather past 2 weeks in Cleveland, Ohio, U.S.A.

Now
69 °F

Passing clouds.


Feels Like: 69 °F
Forecast: 62 / 70 °F
Wind: 13 mph from North

Location: Cleveland-Hopkins International Airport

Current Time: Jul 2, 2015 at 7:38:13 PM

Latest Report: Jul 2, 2015 at 6:51 PM


Visibility: 10 mi

Pressure: 29.97 "Hg

Humidity: 59%

Dew point: 54 °F

Location of ClevelandLocation

Historic Weather in Cleveland — Graph

°F

Cleveland temperature yesterday

Maximum temperature yesterday: 75 °F (at 4:51 PM)
Minimum temperature yesterday: 62 °F (at 4:51 AM)
Average temperature yesterday: 67 °F

Past Weeks' High & Low Weather Summary

 TemperatureHumidityPressure
High84 °F (Jun 22, 1:51 PM)96% (Jun 27, 1:51 PM)30.17 "Hg (Jun 27, 1:51 PM)
Low57 °F (Jun 29, 4:51 AM)44% (Jun 24, 7:51 PM)29.59 "Hg (Jun 27, 3:51 PM)
Average69 °F77%29.93 "Hg
* Reported Jun 17 5:51 PM — Jul 2 5:51 PM, Cleveland, Weather by CustomWeather, © 2015

Note: Actual official high and low records may vary slightly from our data, if they occured in-between our weather recording intervals... More about our weather records

Advertising

Cleveland weather history for previous 24 hours

 ConditionsComfort  
Time TempWeatherWind HumidityBarometerVisibility
5:51 PM
Thu, Jul 2
70 °FPassing clouds.13 mph57%29.97 "Hg10 mi
4:51 PM70 °FPassing clouds.12 mph59%29.98 "Hg10 mi
3:51 PM70 °FPassing clouds.13 mph61%29.98 "Hg10 mi
2:51 PM70 °FPassing clouds.12 mph64%29.99 "Hg10 mi
1:51 PM70 °FPassing clouds.15 mph64%29.99 "Hg10 mi
12:51 PM69 °FScattered clouds.14 mph73%30.00 "Hg10 mi
11:51 AM70 °FScattered clouds.13 mph71%30.00 "Hg10 mi
10:51 AM68 °FPartly sunny.8 mph73%29.98 "Hg10 mi
9:51 AM67 °FBroken clouds.10 mph79%29.97 "Hg10 mi
8:51 AM66 °FOvercast.8 mph75%29.98 "Hg10 mi
7:51 AM64 °FMore clouds than sun.10 mph87%29.97 "Hg10 mi
6:51 AM64 °FPassing clouds.5 mph87%29.96 "Hg10 mi
5:59 AM62 °FPassing clouds.3 mph90%29.97 "Hg10 mi
4:51 AM62 °FPartly cloudy.3 mph90%29.95 "Hg10 mi
3:51 AM65 °FOvercast.6 mph81%29.94 "Hg10 mi
2:51 AM64 °FMostly cloudy.7 mph87%29.95 "Hg10 mi
1:51 AM65 °FMostly cloudy.7 mph87%29.95 "Hg10 mi
12:51 AM65 °FMostly cloudy.7 mph87%29.94 "Hg10 mi
11:51 PM
Wed, Jul 1
67 °FPartly cloudy.5 mph76%29.95 "Hg10 mi
10:51 PM66 °FPassing clouds.No wind78%29.95 "Hg10 mi
9:51 PM68 °FBroken clouds.No wind70%29.94 "Hg10 mi
8:51 PM68 °FBroken clouds.5 mph76%29.92 "Hg10 mi
7:51 PM70 °FScattered clouds.7 mph71%29.91 "Hg10 mi
Weather by CustomWeather, © 2015

See weather overviewHow to use our weather pages